Terminal Aerodrome Forecast
Issued by NWS

Home | Current Version | Previous Version | Graphics & Text | Print | Product List | Glossary On
Versions: 1 2 3 4 5 6 7 8 9 10 11 12 13 14 15 16 17 18
000
FTUS42 KMHX 150526
TAFPGV
TAF
KPGV 150526Z 1506/1606 VRB02KT P6SM SCT008 BKN050
     FM150800 VRB04KT P6SM SCT008 BKN030
     FM151600 02008KT P6SM SCT020 BKN035
     FM160000 VRB04KT P6SM SCT025 BKN050
      AMD LTD TO CLD VIS AND WIND=

USA.gov is the U.S. government's official web portal to all federal, state and local government web resources and services.